Weather History for Golden Triangle, MS

Change the Weather History Date:

Monday, November 5, 2012

  Actual Average Record
Temperature  
Mean Temperature 48 °F -  
Max Temperature 59 °F 66 °F 80 °F (2005)
Min Temperature 37 °F 44 °F 37 °F (2001)
Degree Days  
Heating Degree Days 17    
Moisture  
Dew Point 39 °F    
Average Humidity 79    
Maximum Humidity 93    
Minimum Humidity 44    
Precipitation  
Precipitation 0.01 in - - ()
Sea Level Pressure  
Sea Level Pressure 30.06 in    
Wind  
Wind Speed 3 mph (NNW)    
Max Wind Speed 12 mph    
Max Gust Speed -    
Visibility 9 miles    
Events Rain    
Averages and records for this station are not official NWS values.
T = Trace of Precipitation, MM = Missing Value Source: NWS Daily Summary

Daily Weather History Graph

Daily Weather History Graph

Search for Another Location

Airport:

Trip Planner

Search our weather history database for the weather conditions in past years. The results will help you decide how hot, cold, wet, or windy it might be!

Date:

Astronomy

Nov. 05, 2012 Rise Set
Actual Time 6:17 AM CST 4:58 PM CST
Civil Twilight 5:51 AM CST 5:24 PM CST
Nautical Twilight 5:21 AM CST 5:53 PM CST
Astronomical Twilight 4:52 AM CST 6:23 PM CST
Moon 10:35 PM CST (11/5) 11:35 AM CST (11/5)
Length of Visible Light 11h 33m
Length of Day
10h 41m
Waning Gibbous, 62% of the Moon is Illuminated
Nov 5
Waning Gibbous
Nov 6
Last Quarter
Nov 13
New
Nov 20
First Quarter
Nov 28
Full

Hourly Weather History & Observations

Time (CST) Temp. Windchill Dew Point Humidity Pressure Visibility Wind Dir Wind Speed Gust Speed Precip Events Conditions
12:15 AM 41.0 °F 39.0 °F 35.6 °F 81% 30.12 in 10.0 mi NNW 3.5 mph - N/A   Clear
12:35 AM 42.8 °F 41.1 °F 37.4 °F 81% 30.11 in 10.0 mi North 3.5 mph - N/A   Clear
12:55 AM 41.0 °F 39.0 °F 35.6 °F 81% 30.11 in 10.0 mi NNW 3.5 mph - N/A   Clear
1:15 AM 39.2 °F - 35.6 °F 87% 30.12 in 10.0 mi Calm Calm - N/A   Clear
1:35 AM 39.2 °F - 35.6 °F 87% 30.12 in 10.0 mi Calm Calm - N/A   Clear
1:55 AM 39.2 °F - 35.6 °F 87% 30.11 in 10.0 mi Calm Calm - N/A   Clear
2:15 AM 39.2 °F - 35.6 °F 87% 30.11 in 10.0 mi Calm Calm - N/A   Clear
2:35 AM 39.2 °F - 35.6 °F 87% 30.11 in 10.0 mi Calm Calm - N/A   Clear
3:15 AM 37.4 °F - 35.6 °F 93% 30.12 in 10.0 mi Calm Calm - N/A   Clear
3:35 AM 37.4 °F - 33.8 °F 87% 30.12 in 10.0 mi Calm Calm - N/A   Clear
3:55 AM 37.4 °F 32.8 °F 33.8 °F 87% 30.12 in 10.0 mi North 5.8 mph - N/A   Clear
4:15 AM 37.4 °F 32.8 °F 33.8 °F 87% 30.12 in 9.0 mi NNE 5.8 mph - N/A   Clear
4:35 AM 37.4 °F 32.8 °F 33.8 °F 87% 30.12 in 10.0 mi NNE 5.8 mph - N/A   Clear
4:55 AM 37.4 °F 34.9 °F 33.8 °F 87% 30.12 in 10.0 mi NNE 3.5 mph - N/A   Scattered Clouds
5:15 AM 37.4 °F 34.9 °F 35.6 °F 93% 30.12 in 10.0 mi NNE 3.5 mph - N/A   Partly Cloudy
5:35 AM 37.4 °F - 35.6 °F 93% 30.12 in 10.0 mi Calm Calm - N/A   Clear
6:50 AM 37.4 °F 33.8 °F 35.6 °F 93% 30.11 in 10.0 mi NNE 4.6 mph - N/A   Partly Cloudy
8:45 AM 48.2 °F - 39.2 °F 71% 30.10 in 10.0 mi East 9.2 mph - N/A   Scattered Clouds
9:50 AM 53.6 °F - 39.2 °F 58% 30.11 in 10.0 mi South 6.9 mph - N/A   Mostly Cloudy
10:50 AM 53.6 °F - 37.4 °F 54% 30.09 in 10.0 mi South 6.9 mph - N/A   Mostly Cloudy
11:50 AM 55.4 °F - 39.2 °F 54% 30.06 in 10.0 mi South 6.9 mph - N/A   Mostly Cloudy
12:50 PM 57.2 °F - 39.2 °F 51% 30.03 in 10.0 mi Calm Calm - N/A   Mostly Cloudy
1:45 PM 59.0 °F - 37.4 °F 45% 29.99 in 10.0 mi SE 11.5 mph - N/A   Mostly Cloudy
2:50 PM 59.0 °F - 37.4 °F 45% 29.96 in 10.0 mi SSE 9.2 mph - N/A   Mostly Cloudy
3:45 PM 57.2 °F - 35.6 °F 44% 30.02 in 10.0 mi West 3.5 mph - N/A   Mostly Cloudy
4:45 PM 53.6 °F - 42.8 °F 67% 30.01 in 10.0 mi South 8.1 mph - N/A   Overcast
5:05 PM 51.8 °F - 44.6 °F 76% 29.99 in 5.0 mi South 6.9 mph - N/A Rain Light Rain
5:45 PM 51.8 °F - 44.6 °F 76% 30.00 in 7.0 mi Calm Calm - N/A   Overcast
6:45 PM 50.0 °F - 46.4 °F 87% 30.03 in 6.0 mi WNW 4.6 mph - N/A Rain Light Rain
7:45 PM 48.2 °F - 44.6 °F 87% 30.04 in 5.0 mi SW 3.5 mph - N/A Rain Light Rain
8:15 PM 48.2 °F - 44.6 °F 87% 29.96 in 10.0 mi East 10.4 mph - 0.01 in   Overcast
8:35 PM 48.2 °F - 44.6 °F 87% 29.98 in 10.0 mi ENE 6.9 mph - 0.01 in   Scattered Clouds
8:55 PM 48.2 °F - 42.8 °F 82% 29.98 in 10.0 mi Calm Calm - 0.01 in   Partly Cloudy
9:15 PM 46.4 °F - 42.8 °F 87% 29.99 in 10.0 mi Calm Calm - N/A   Partly Cloudy
9:35 PM 46.4 °F 43.5 °F 42.8 °F 87% 30.01 in 10.0 mi NW 5.8 mph - N/A   Mostly Cloudy
9:55 PM 46.4 °F 44.3 °F 42.8 °F 87% 30.00 in 10.0 mi NW 4.6 mph - N/A   Mostly Cloudy
10:15 PM 46.4 °F 44.3 °F 42.8 °F 87% 30.00 in 10.0 mi NW 4.6 mph - N/A   Scattered Clouds
10:35 PM 44.6 °F 42.2 °F 42.8 °F 93% 30.00 in 10.0 mi NW 4.6 mph - N/A   Mostly Cloudy
11:35 PM 44.6 °F 43.1 °F 42.8 °F 93% 30.00 in 7.0 mi NW 3.5 mph - N/A   Clear
11:55 PM 44.6 °F 42.2 °F 39.2 °F 81% 29.99 in 2.5 mi NW 4.6 mph - N/A   Clear